Weather History for Avoca, PA

Change the Weather History Date:

Wednesday, December 19, 2012

  Actual Average Record
Temperature  
Mean Temperature 39 °F 29 °F  
Max Temperature 44 °F 36 °F 60 °F (1929)
Min Temperature 34 °F 23 °F -1 °F (1919)
Degree Days  
Heating Degree Days 26 36  
Month to date heating degree days 470 619  
Since 1 July heating degree days 1697 1932  
Cooling Degree Days 0 0  
Month to date cooling degree days 0 0  
Year to date cooling degree days 864 580  
Moisture  
Dew Point 27 °F    
Average Humidity 68    
Maximum Humidity 82    
Minimum Humidity 53    
Precipitation  
Precipitation 0.00 in 0.08 in 0.69 in (1995)
Month to date precipitation 1.49 1.74  
Year to date precipitation 35.66 37.32  
Sea Level Pressure  
Sea Level Pressure 29.91 in    
Wind  
Wind Speed 11 mph (NW)    
Max Wind Speed 26 mph    
Max Gust Speed 32 mph    
Visibility 10 miles    
Events      
T = Trace of Precipitation, MM = Missing Value Source: NWS Daily Summary

Daily Weather History Graph

Daily Weather History Graph

Search for Another Location

Airport:

Trip Planner

Search our weather history database for the weather conditions in past years. The results will help you decide how hot, cold, wet, or windy it might be!

Date:

Astronomy

Dec. 19, 2012 Rise Set
Actual Time 7:24 AM EST 4:36 PM EST
Civil Twilight 6:53 AM EST 5:07 PM EST
Nautical Twilight 6:18 AM EST 5:42 PM EST
Astronomical Twilight 5:44 AM EST 6:15 PM EST
Moon 11:28 AM EST (12/19) No Moon Set
Length of Visible Light 10h 14m
Length of Day
9h 11m
Waxing Crescent, 45% of the Moon is Illuminated
Dec 19
Waxing Crescent
Dec 20
First Quarter
Dec 28
Full
Jan 4
Last Quarter
Jan 11
New

Hourly Weather History & Observations

Time (EST) Temp. Windchill Dew Point Humidity Pressure Visibility Wind Dir Wind Speed Gust Speed Precip Events Conditions
12:54 AM 37.9 °F 30.9 °F 30.9 °F 76% 29.69 in 10.0 mi WSW 10.4 mph - N/A   Overcast
1:15 AM 37.4 °F 30.8 °F 30.2 °F 75% 29.69 in 10.0 mi WSW 9.2 mph - N/A   Overcast
1:54 AM 36.0 °F 28.5 °F 30.0 °F 79% 29.71 in 10.0 mi SW 10.4 mph - N/A   Overcast
2:54 AM 36.0 °F 29.6 °F 28.9 °F 76% 29.73 in 10.0 mi SW 8.1 mph - N/A   Overcast
3:54 AM 36.0 °F 29.6 °F 28.0 °F 73% 29.73 in 10.0 mi WSW 8.1 mph - N/A   Overcast
4:54 AM 35.1 °F 27.4 °F 27.0 °F 72% 29.74 in 10.0 mi SW 10.4 mph - N/A   Overcast
5:54 AM 35.1 °F 28.6 °F 27.0 °F 72% 29.78 in 10.0 mi WSW 8.1 mph - N/A   Overcast
6:54 AM 34.0 °F - 27.0 °F 75% 29.80 in 10.0 mi Calm Calm - N/A   Partly Cloudy
7:54 AM 35.1 °F 31.0 °F 27.0 °F 72% 29.83 in 10.0 mi NNW 4.6 mph - N/A   Clear
8:54 AM 37.9 °F 32.1 °F 26.1 °F 62% 29.85 in 10.0 mi NW 8.1 mph - N/A   Clear
9:54 AM 39.9 °F 32.9 °F 28.0 °F 63% 29.88 in 10.0 mi NW 11.5 mph - N/A   Mostly Cloudy
10:03 AM 39.2 °F 31.2 °F 28.4 °F 65% 29.86 in 10.0 mi NNW 13.8 mph 21.9 mph N/A   Mostly Cloudy
10:13 AM 39.2 °F 31.2 °F 26.6 °F 61% 29.86 in 10.0 mi NW 13.8 mph - N/A   Mostly Cloudy
10:54 AM 39.9 °F 31.1 °F 27.0 °F 60% 29.88 in 10.0 mi NW 17.3 mph - N/A   Partly Cloudy
11:54 AM 42.1 °F 33.6 °F 28.0 °F 58% 29.89 in 10.0 mi NNW 18.4 mph 24.2 mph N/A   Scattered Clouds
12:54 PM 41.0 °F 33.1 °F 27.0 °F 57% 29.91 in 10.0 mi NNW 15.0 mph - N/A   Mostly Cloudy
1:54 PM 43.0 °F 34.2 °F 26.1 °F 51% 29.91 in 10.0 mi NW 20.7 mph 28.8 mph N/A   Partly Cloudy
2:54 PM 41.0 °F 31.6 °F 27.0 °F 57% 29.95 in 10.0 mi NNW 20.7 mph 28.8 mph N/A   Overcast
3:54 PM 39.9 °F 31.1 °F 25.0 °F 55% 29.98 in 10.0 mi NW 17.3 mph 23.0 mph N/A   Overcast
4:54 PM 39.0 °F 32.8 °F 26.1 °F 60% 30.01 in 10.0 mi NW 9.2 mph - N/A   Overcast
5:54 PM 39.0 °F 34.8 °F 26.1 °F 60% 30.05 in 10.0 mi WNW 5.8 mph - N/A   Overcast
6:54 PM 39.0 °F 35.7 °F 26.1 °F 60% 30.08 in 10.0 mi WNW 4.6 mph - N/A   Overcast
7:54 PM 39.0 °F 33.4 °F 26.1 °F 60% 30.09 in 10.0 mi North 8.1 mph - N/A   Overcast
8:54 PM 39.0 °F 34.0 °F 26.1 °F 60% 30.10 in 10.0 mi NNW 6.9 mph - N/A   Overcast
9:54 PM 39.0 °F 32.8 °F 27.0 °F 62% 30.12 in 10.0 mi NNW 9.2 mph - N/A   Overcast
10:54 PM 37.9 °F 29.6 °F 27.0 °F 65% 30.14 in 10.0 mi North 13.8 mph 20.7 mph N/A   Mostly Cloudy
11:54 PM 36.0 °F 29.0 °F 27.0 °F 70% 30.16 in 10.0 mi North 9.2 mph - N/A   Mostly Cloudy